Torna al catalogo

SL-6 R/B(2)

AttivoHEO
NORAD 18883·ROCKET BODY·🇷🇺 Russia

Lanciato Feb 26, 1988 da Plesetsk Cosmodrome

Loading…

Prossimi Passaggi (prossime 24 ore)

TLE

AggiornatoSource: Space-Track

Epoca: Sep 13, 2026, 19:21 UTC

1 18883U 88013C   26256.80643373  .00000704  00000-0  00000-0 0  9994
2 18883  64.4917 283.7907 6669832  22.8870 356.6530  2.04035945287089

Traccia SL-6 R/B(2) in tempo reale con AllMySat

Download on the App Store